MEASAT-3A

Last updated on Sun Jun 21 2026 00:03:04 GMT+0000 (Coordinated Universal Time)

1 35362U 09032A 26171.46287559 -.00000115 00000+0 00000+0 0 9992 2 35362 0.0229 9.7367 0002991 72.4870 153.0950 1.00271965 8063
UTC large
Height (km)
Speed (km/s)
/
Latitude / Longitude
Inclination (degrees)
Orbital Period (minutes)
Azimuth
Elevation
Range (km)
Doppler Factor

Next 0 passes for location: London (51.5072 / 0.1276)

No passes found over London.
MEASAT-3A